Airfield :
LOGIN :

Register | Disclaimer

   EN    FR    IT 

 










Legend :    VFR   Marginal VFR   IFR   Intensive IFR   Very Intensive IFR
Visi :
Ceiling :
>= 8 km
>= 3000ft
5 to 8 km
1000 to 3000 ft
1500m to 5 km
500 to 1000 ft
800 to 1500m
200 to 500 ft
< 800m
< 200 ft
Symbols :   Thunderstorms  Fog  Heavy snow  Heavy precipitations  Wind > 20 kt
SIGMETs :     Misc.  Thunderstorms  Icing  Turbulence  Mountain Waves  Volcanic Ashes







- Airport Elevation : 1411 ft
- IATA code : ZHI


LSZG - Grenchen

CURRENT METAR :
  • 150150Z AUTO VRB03KT 9999 OVC024 M01/M05 Q1022

EXPIRED METARs :
  • 150120Z AUTO 02003KT 9999 OVC024 M01/M05 Q1022
  • 150050Z AUTO 07004KT 9999 BKN024 M01/M05 Q1021
  • 150020Z AUTO 06006KT 9999 OVC024 M01/M05 Q1021
  • 142350Z AUTO 06005KT 9999 OVC024 M01/M04 Q1021
  • 142320Z AUTO 05005KT 9999 OVC026 M01/M04 Q1021

Expired Forecast.
ATIS : +41 32 396 96 33
No reported NOTAMs for that airfield.



MET'MAP, your aeronautical weather chart ! - Copyright ORBIFLY December 2007 - Disclaimer

ORBIFLY MET'MAP TEAM :

Programming & Development : Alexandra Zaïnal
Concept & Development : Baudouin d'Aumeries
Co-Development & Prog : Marc-Olivier Méhu
Technical & hardware support : Manuel Goepfert

Contact : metmap@orbifly.com




SOURCES & CREDITS :

   NOAA